Change the Weather History Date:

Tuesday, April 1, 2014

  Actual Average Record
Temperature  
Mean Temperature 66 °F -  
Max Temperature 80 °F 67 °F 86 °F (2012)
Min Temperature 53 °F 48 °F 37 °F (2011)
Cooling Degree Days 2    
Growing Degree Days 16 (Base 50)    
Moisture  
Dew Point 60 °F    
Average Humidity 82    
Maximum Humidity 100    
Minimum Humidity 54    
Precipitation  
Precipitation 0.00 in - - ()
Sea Level Pressure  
Sea Level Pressure 29.90 in    
Wind  
Wind Speed 7 mph (East)    
Max Wind Speed 17 mph    
Max Gust Speed 24 mph    
Visibility 9 miles    
Events      
Averages and records for this station are not official NWS values.
T = Trace of Precipitation, MM = Missing Value Source: NWS Daily Summary

Daily Weather History Graph

Daily Weather History Graph

Search for Another Location

Airport or City:

Trip Planner

Search our weather history database for the weather conditions in past years. The results will help you decide how hot, cold, wet, or windy it might be!

Date:

Astronomy

Apr. 01, 2014 Rise Set
Actual Time 7:15 AM CDT 7:49 PM CDT
Civil Twilight 6:49 AM CDT 8:14 PM CDT
Nautical Twilight 6:20 AM CDT 8:44 PM CDT
Astronomical Twilight 5:50 AM CDT 9:14 PM CDT
Moon 8:23 AM CDT (4/1) 10:06 PM CDT (4/1)
Length of Visible Light 13h 24m
Length of Day
12h 33m
Waxing Crescent, 5% of the Moon is Illuminated
Apr 1
Waxing Crescent
Apr 7
First Quarter
Apr 15
Full
Apr 22
Last Quarter
Apr 29
New

Hourly Weather History & Observations

Time (CDT) Temp. Heat Index Dew Point Humidity Pressure Visibility Wind Dir Wind Speed Gust Speed Precip Events Conditions
12:15 AM 65.1 °F - 58.3 °F 78% 29.89 in 10.0 mi East 5.8 mph - N/A   Clear
12:35 AM 63.9 °F - 57.9 °F 81% 29.89 in 10.0 mi East 5.8 mph - N/A   Clear
12:55 AM 64.4 °F - 58.3 °F 80% 29.89 in 10.0 mi East 9.2 mph - N/A   Clear
1:15 AM 64.0 °F - 58.3 °F 82% 29.89 in 10.0 mi East 9.2 mph - N/A   Clear
1:35 AM 63.7 °F - 58.3 °F 83% 29.89 in 10.0 mi East 8.1 mph - N/A   Clear
1:55 AM 63.0 °F - 58.1 °F 84% 29.89 in 10.0 mi East 6.9 mph - N/A   Clear
2:15 AM 63.1 °F - 58.1 °F 84% 29.91 in 10.0 mi ENE 8.1 mph - N/A   Clear
2:35 AM 62.6 °F - 58.1 °F 85% 29.92 in 10.0 mi ENE 6.9 mph - N/A   Clear
2:55 AM 62.1 °F - 57.9 °F 86% 29.92 in 10.0 mi ENE 6.9 mph - N/A   Clear
3:15 AM 61.5 °F - 57.6 °F 87% 29.91 in 10.0 mi East 5.8 mph - N/A   Clear
3:35 AM 60.1 °F - 57.2 °F 90% 29.92 in 10.0 mi NE 6.9 mph - N/A   Scattered Clouds
3:55 AM 61.5 °F - 58.1 °F 89% 29.93 in 10.0 mi NE 6.9 mph - N/A   Mostly Cloudy
4:15 AM 61.7 °F - 58.1 °F 88% 29.93 in 10.0 mi NE 6.9 mph - N/A   Overcast
4:35 AM 62.4 °F - 58.1 °F 86% 29.93 in 10.0 mi ENE 5.8 mph - N/A   Mostly Cloudy
4:55 AM 62.6 °F - 58.1 °F 85% 29.93 in 10.0 mi East 6.9 mph - N/A   Mostly Cloudy
5:15 AM 62.8 °F - 58.3 °F 85% 29.94 in 10.0 mi East 6.9 mph - N/A   Mostly Cloudy
5:35 AM 62.8 °F - 58.3 °F 85% 29.94 in 10.0 mi East 6.9 mph - N/A   Mostly Cloudy
5:55 AM 62.6 °F - 58.1 °F 85% 29.94 in 10.0 mi East 4.6 mph - N/A   Overcast
6:15 AM 62.6 °F - 58.3 °F 86% 29.95 in 10.0 mi East 6.9 mph - N/A   Overcast
6:35 AM 62.6 °F - 58.3 °F 86% 29.95 in 10.0 mi East 5.8 mph - N/A   Overcast
6:55 AM 62.6 °F - 59.0 °F 88% 29.95 in 10.0 mi East 5.8 mph - N/A   Overcast
7:55 AM 60.8 °F - 59.0 °F 94% 29.96 in 1.8 mi East 10.4 mph - N/A   Overcast
8:20 AM 60.8 °F - 59.0 °F 94% 29.97 in 2.0 mi NE 11.5 mph - N/A   Overcast
8:55 AM 53.6 °F - 53.6 °F 100% 29.98 in 1.5 mi ENE 5.8 mph - N/A   Drizzle
9:55 AM 53.6 °F - 53.6 °F 100% 29.97 in 1.5 mi Calm Calm - N/A   Overcast
10:55 AM 57.2 °F - 57.2 °F 100% 29.98 in 4.0 mi NNE 3.5 mph - N/A   Overcast
11:55 AM 59.0 °F - 57.2 °F 94% 29.97 in 5.0 mi ENE 6.9 mph - N/A   Overcast
12:55 PM 64.4 °F - 62.6 °F 94% 29.95 in 7.0 mi East 5.8 mph - N/A   Overcast
1:55 PM 71.6 °F - 64.4 °F 78% 29.91 in 10.0 mi East 5.8 mph - N/A   Mostly Cloudy
2:55 PM 80.6 °F 82.3 °F 64.4 °F 58% 29.88 in 10.0 mi South 13.8 mph 23.0 mph N/A   Scattered Clouds
3:55 PM 80.6 °F 81.8 °F 62.6 °F 54% 29.85 in 10.0 mi SSW 15.0 mph 21.9 mph N/A   Scattered Clouds
4:55 PM 80.6 °F 81.8 °F 62.6 °F 54% 29.83 in 10.0 mi SSE 13.8 mph 21.9 mph N/A   Scattered Clouds
5:55 PM 80.6 °F 81.8 °F 62.6 °F 54% 29.82 in 10.0 mi SSE 17.3 mph 23.0 mph N/A   Clear
6:55 PM 78.8 °F - 62.6 °F 57% 29.81 in 10.0 mi SSE 15.0 mph 24.2 mph N/A   Clear
7:55 PM 73.4 °F - 62.6 °F 69% 29.82 in 10.0 mi SE 8.1 mph - N/A   Clear
8:55 PM 71.6 °F - 62.6 °F 73% 29.83 in 10.0 mi SE 8.1 mph - N/A   Clear
9:55 PM 69.8 °F - 62.6 °F 78% 29.83 in 10.0 mi SE 8.1 mph - N/A   Clear
10:15 PM 70.7 °F - 62.4 °F 75% 29.84 in 10.0 mi SE 8.1 mph - N/A   Clear
10:35 PM 69.8 °F - 62.6 °F 78% 29.83 in 10.0 mi SE 8.1 mph - N/A   Clear
10:55 PM 69.8 °F - 62.6 °F 78% 29.82 in 10.0 mi SE 8.1 mph - N/A   Clear
11:15 PM 69.8 °F - 62.8 °F 78% 29.82 in 10.0 mi SE 5.8 mph - N/A   Clear
11:35 PM 69.3 °F - 62.8 °F 80% 29.82 in 10.0 mi SE 3.5 mph - N/A   Clear
11:55 PM 67.6 °F - 62.2 °F 83% 29.82 in 10.0 mi ESE 5.8 mph - N/A   Clear